Regional Weather Roundup
Issued by NWS

Home | Current Version | Previous Version | Text Only | Print | Product List | Glossary Off
Versions: 1 2 3 4 5 6 7 8 9 10 11 12 13 14 15 16 17 18 19 20 21 22 23 24 25 26 27 28 29 30 31 32 33 34 35 36 37 38 39 40 41 42 43 44 45 46 47 48 49 50

000
ASUS43 KBIS 220920
RWRND

NORTH DAKOTA REGIONAL WEATHER ROUNDUP
NATIONAL WEATHER SERVICE BISMARCK ND
400 AM CDT WED OCT 22 2014

NOTE: "FAIR" INDICATES FEW OR NO CLOUDS BELOW 12,000 FEET WITH NO
SIGNIFICANT WEATHER AND/OR OBSTRUCTIONS TO VISIBILITY.


NDZ001>003-009>011-017-221000-
NORTHWEST NORTH DAKOTA

CITY           SKY/WX    TMP DP  RH WIND       PRES   REMARKS
WILLISTON      MOCLDY    54  46  74 W8        29.69R
MINOT          PTCLDY    59  47  64 SW14      29.63R
MINOT AFB      MOCLDY    58  48  69 SW12      29.62R
$$

NDZ018>021-031>035-040>046-221000-
SOUTHWEST NORTH DAKOTA

CITY           SKY/WX    TMP DP  RH WIND       PRES   REMARKS
BISMARCK       PTCLDY    58  48  69 S7        29.68S
DICKINSON      PTCLDY    53  45  74 W20       29.73R
GARRISON         N/A     53  49  86 CALM      29.65F
HETTINGER ARPT CLEAR     51  44  77 W12       29.78R
$$

NDZ004>008-012>016-024-026-027-054-221000-
NORTHEAST NORTH DAKOTA

CITY           SKY/WX    TMP DP  RH WIND       PRES   REMARKS
GRAND FORKS    CLEAR     54  42  64 S23G30    29.81F
GRND FRKS AFB  PTCLDY    55  42  63 S23G31    29.79F
DEVILS LAKE    CLEAR     57  43  58 S18G25    29.70R
$$

NDZ022-023-025-028>030-036>039-047>053-221000-
SOUTHEAST NORTH DAKOTA

CITY           SKY/WX    TMP DP  RH WIND       PRES   REMARKS
FARGO          PTCLDY    55  41  59 SE25G35   29.87F
JAMESTOWN      PTCLDY    59  42  53 S17G25    29.75F
$$




USA.gov is the U.S. government's official web portal to all federal, state and local government web resources and services.